Home > Weather > Jeddah > Past weeks

Flag for Saudi Arabia Past Weather in Jeddah, Saudi Arabia — Yesterday and Last 2 Weeks

Now
97 °F

Sunny.


Feels Like: 105 °F
Forecast: 86 / 97 °F
Wind: 7 mph from Southwest

Location: Jeddah King Abdul Aziz International Airport

Current Time: Jul 30, 2016 at 6:18:45 PM

Latest Report: Jul 30, 2016 at 6:00 PM


Visibility: 10 mi

Pressure: 29.53 "Hg

Humidity: 44%

Dew Point: 72 °F

Location of JeddahLocation

Past Weather in Jeddah — Graph

°F

Jeddah Temperature Yesterday

Maximum temperature yesterday: 102 °F (at 11:00 AM)
Minimum temperature yesterday: 88 °F (at 2:00 AM)
Average temperature yesterday: 94 °F

High & Low Weather Summary for the Past Weeks

 TemperatureHumidityPressure
High108 °F (Jul 16, 1:00 PM)79% (Jul 19, 5:00 AM)29.71 "Hg (Jul 19, 5:00 AM)
Low82 °F (Jul 21, 6:00 AM)12% (Jul 16, 2:00 PM)29.47 "Hg (Jul 23, 2:00 PM)
Average93 °F49%29.59 "Hg
* Reported Jul 15 5:00 PM — Jul 30 5:00 PM, Jeddah, Weather by CustomWeather, © 2016

Note: Actual official high and low records may vary slightly from our data, if they occured in-between our weather recording intervals... More about our weather records

Advertising

Jeddah Weather History for the Previous 24 Hours

Scroll right to see more
 ConditionsComfort  
Time TempWeatherWind HumidityBarometerVisibility
5:00 PM
Sat, Jul 30
95 °FSunny.9 mph50%29.56 "Hg10 mi
4:00 PM99 °FClear.6 mph42%29.56 "Hg6 mi
3:00 PM100 °FClear.7 mph40%29.59 "Hg5 mi
2:00 PM99 °FScattered clouds.9 mph42%29.59 "Hg4 mi
1:00 PM100 °FScattered clouds.12 mph40%29.62 "Hg4 mi
12:00 PM97 °FScattered clouds.16 mph50%29.62 "Hg4 mi
11:00 AM99 °FScattered clouds.18 mph47%29.65 "Hg4 mi
10:00 AM99 °FScattered clouds.21 mph44%29.65 "Hg4 mi
9:00 AM95 °FScattered clouds.21 mph53%29.65 "Hg4 mi
8:00 AM93 °FScattered clouds.16 mph56%29.65 "Hg5 mi
7:00 AM91 °FScattered clouds.12 mph59%29.62 "Hg5 mi
6:00 AM91 °FSunny.7 mph56%29.62 "Hg10 mi
5:00 AM91 °FClear.7 mph56%29.59 "Hg10 mi
4:00 AM91 °FClear.7 mph56%29.59 "Hg10 mi
3:00 AM93 °FClear.5 mph56%29.59 "Hg10 mi
2:00 AM93 °FClear.7 mph56%29.59 "Hg10 mi
1:00 AM93 °FClear.5 mph56%29.62 "Hg10 mi
12:00 AM93 °FClear.7 mph56%29.62 "Hg10 mi
11:00 PM
Fri, Jul 29
93 °FClear.7 mph56%29.65 "Hg10 mi
10:00 PM93 °FClear.10 mph63%29.65 "Hg10 mi
9:00 PM93 °FClear.8 mph59%29.62 "Hg10 mi
8:00 PM93 °FClear.6 mph63%29.59 "Hg5 mi
7:00 PM95 °FSunny.8 mph60%29.59 "Hg4 mi
6:00 PM95 °FSunny.9 mph53%29.56 "Hg4 mi
Weather by CustomWeather, © 2016

See weather overviewHow to use our weather pages